Regional Weather Roundup
Issued by NWS

Home | Current Version | Previous Version | Graphics & Text | Print | Product List | Glossary On
Versions: 1 2 3 4 5 6 7 8 9 10 11 12 13 14 15 16 17 18 19 20 21 22 23 24 25 26 27 28 29 30 31 32 33 34 35 36 37 38 39 40 41 42 43 44 45 46 47 48 49 50
000
ASUS43 KDMX 270304
RWRIA

WEATHER ROUNDUP FOR IOWA
NATIONAL WEATHER SERVICE DES MOINES IA
  ISSUED BY NWS QUAD CITIES IA IL
900 PM CST THU FEB 26 2015

NOTE: "FAIR" INDICATES FEW OR NO CLOUDS BELOW 12,000 FEET WITH NO
SIGNIFICANT WEATHER AND/OR OBSTRUCTIONS TO VISIBILITY.

* - THESE STATIONS ARE NOT NWS STATIONS...THUS NOT UNDER NWS
QUALITY CONTROL.  THEY ALSO DO NOT REPORT WEATHER SUCH
AS PRECIPITATION OR FOG.

IAZ001>003-012>014-020>022-031>034-043>046-270400-
   NORTHWEST IOWA

CITY           SKY/WX    TMP DP  RH WIND       PRES   REMARKS
CARROLL *      CLEAR     -2  -9  71 NW9       30.53R WCI -18
CHEROKEE *     FAIR      -3  -8  79 NW5       30.53S WCI -13
DENNISON *     PTCLDY    -4  -9  77 CALM      30.52S
LE MARS *      CLEAR     -2  -8  78 NW3       30.55S
ORANGE CITY *  CLEAR      0  -8  71 NW6       30.50S WCI -12
SHELDON *      FAIR      -8 -15  71 NW8       30.49F WCI -23
SIOUX CITY     CLEAR      4  -5  66 N9        30.56S WCI -10
SPENCER        CLEAR     -9 -15  75 NW9       30.50S WCI -26
STORM LAKE *   CLEAR     -2  -9  71 NW9       30.50S WCI -18
$$

IAZ055>058-069>071-079>083-090>094-270400-
   SOUTHWEST IOWA

CITY           SKY/WX    TMP DP  RH WIND       PRES   REMARKS
ATLANTIC *     CLEAR     -2  -9  71 CALM      30.54S
AUDUBON *      FAIR      -2  -9  71 CALM      30.52S
CLARINDA *     CLEAR      3  -4  72 N3        30.59R
COUNCIL BLFS * CLEAR      3  -2  78 N3        30.53S
CRESTON *      CLEAR     -2  -8  78 NW6       30.52S WCI -14
HARLAN *       CLEAR     -2  -6  84 CALM      30.57S
LAMONI         CLEAR      1  -5  75 NW9       30.52R WCI -14
RED OAK *      CLEAR      0  -6  78 N6        30.57S WCI -12
SHENANDOAH *   CLEAR      3  -2  78 N3        30.59R
$$

IAZ047>049-059>061-072>074-084-270400-
   CENTRAL IOWA

CITY           SKY/WX    TMP DP  RH WIND       PRES   REMARKS
AMES           CLEAR     -1  -8  72 NW7       30.54R WCI -14
ANKENY *       CLEAR      1  -8  66 N9G15     30.55S WCI -14
BOONE *        MOCLDY     0  -8  71 NW7       30.50S WCI -13
CHARITON *     CLEAR      0  -8  71 NW7       30.52S WCI -13
DES MOINES     CLEAR      3  -6  66 N6        30.54R WCI  -8
GRINNELL *     CLEAR     -6 -10  81 NW8       30.51S WCI -21
KNOXVILLE *    PTCLDY     0  -9  65 NW8       30.52R WCI -15
MARSHALLTOWN   CLEAR     -9 -13  83 NW7       30.51R WCI -24
NEWTON *       CLEAR      0  -8  71 NW10      30.53R WCI -17
PELLA *        CLEAR     -3  -6  85 NW6       30.55R WCI -15
PERRY *          N/A     -5  -9  84 NW3       30.54R
$$

IAZ004>006-015-016-023>025-035-036-270400-
   NORTH CENTRAL IOWA

CITY           SKY/WX    TMP DP  RH WIND       PRES   REMARKS
ALGONA *       CLEAR     -8 -11  84 NW7       30.52R WCI -22
CLARION *      CLEAR     -9 -15  77 NW6       30.51S WCI -23
ESTHERVILLE    CLEAR     -9 -14  78 NW10      30.49S WCI -27
FORT DODGE *   CLEAR     -6 -11  77 CALM      30.53R
MASON CITY     CLEAR     -9 -14  78 W10       30.50R WCI -27
FOREST CITY *  FAIR      -6 -13  71 NW8       30.49R WCI -21
WEBSTER CITY * CLEAR     -8 -15  71 NW8       30.50S WCI -23
IOWA FALLS *   FAIR     -12 -17  78 NW7       30.51R WCI -27
$$

IAZ007>011-017>019-026>030-037>042-050>054-066-270400-
   NORTHEAST IOWA

CITY           SKY/WX    TMP DP  RH WIND       PRES   REMARKS
CEDAR RAPIDS   CLEAR     -4 -10  75 NW12      30.49R WCI -22
CHARLES CITY * CLEAR     -8 -13  77 W9        30.48R WCI -25
CLINTON *      CLEAR     -6 -13  71 NW8       30.48R WCI -21
DECORAH *      PTCLDY    -2 -11  65 CALM      30.44R
DUBUQUE        CLEAR      1  -9  62 NW13      30.42R WCI -17
MONTICELLO *   CLEAR     -4 -11  71 CALM      30.48R
OELWEIN *      FAIR      -8 -15  71 NW10      30.48R WCI -26
WATERLOO       CLEAR     -4 -10  75 NW8       30.50R WCI -19
$$

IAZ064-065-067-068-078-270400-
   EAST CENTRAL IOWA

CITY           SKY/WX    TMP DP  RH WIND       PRES   REMARKS
DAVENPORT      CLEAR     -7 -13  75 NW9       30.48R WCI -24
IOWA CITY      CLEAR      1  -8  66 NW12      30.53R WCI -16
MT. PLEASANT * CLEAR      1  -8  67 NW9       30.52R WCI -14
MUSCATINE *    CLEAR      0  -8  71 W9        30.53R WCI -16
QUAD CITIES    CLEAR      2  -7  66 W10       30.49R WCI -14
$$

IAZ062-063-075>077-085>089-095>099-270400-
   SOUTHEAST IOWA

CITY           SKY/WX    TMP DP  RH WIND       PRES   REMARKS
BURLINGTON     CLEAR      1  -6  72 NW8       30.50R WCI -13
FAIRFIELD *    CLEAR     -2 -13  60 NW9       30.53R WCI -18
FORT MADISON * CLEAR      0  -8  71 NW10      30.51S WCI -17
KEOKUK *       CLEAR      3  -6  66 NW10      30.51S WCI -12
OSKALOOSA *    FAIR      -4  -9  77 NW7       30.54R WCI -17
CENTERVILLE *  FAIR       0  -6  78 NW7       30.53S WCI -13
OTTUMWA        CLEAR     -4 -11  72 NW9       30.53R WCI -20
WASHINGTON *   CLEAR      0  -6  78 NW13      30.52R WCI -18
$$

ABBREVIATIONS USED IN REMARKS
   TC - TEMPERATURES IN CELSIUS
  WCI - WIND CHILL INDEX
   HX - HEAT INDEX
  VSB - VISIBILITY
$$


USA.gov is the U.S. government's official web portal to all federal, state and local government web resources and services.